Location: Degersen
(52.2871°N, 9.5716°E)
Time: 19:47:20
(UTC+00:00)

IGS 5A - Pass Details

Date: 20 January 2026
Orbit: 551 x 554 km, 97.4° (Epoch: 8 January)

Event Time Altitude Azimuth Distance (km) Brightness Sun altitude
Rises 05:38:46 0° 11° (N) 2,743 6.9 -14.9°
Reaches altitude 10° 05:40:55 10° 8° (N) 1,843 5.9 -14.6°
Maximum altitude 05:44:51 64° 288° (WNW) 617 3.3 -14.0°
Drops below altitude 10° 05:48:46 10° 206° (SSW) 1,829 5.9 -13.4°
Sets 05:50:54 0° 204° (SSW) 2,718 6.8 -13.1°
